Location: Campillo
(40.8621°N, 4.2488°W)
Time: 13:13:13
(UTC+00:00)

Cosmos 1536 - Pass Details

Date: 11 May 2021
Orbit: 539 x 558 km, 82.5° (Epoch: 13 June)

Event Time Altitude Azimuth Distance (km) Brightness Sun altitude
Rises 22:40:44 0° 347° (NNW) 2,739 7.6 -27.2°
Reaches altitude 10° 22:42:56 10° 343° (NNW) 1,837 6.5 -27.4°
Enters shadow 22:45:50 40° 315° (NW) 820 4.0 -27.6°
